x

8461490 - New London, Ct (nlnc3) Weather Station

2:18 - Thu 21st Sep 2017 All times are EDT. -4 hours from GMT.

  • Wind
    6mph, 14mph gusts
  • Sea Temp 68°f
  • Air Temp 71°f
  • Sea Pressure 1013.7mb
  • 8461490 - New London, Ct
  • 8461490 - New London, Ct

More Historic Weather Station data

Upgrade to MSW Pro to gain access to the past 30 days of data for over 8000 Wavebouys and Weather Stations around the globe.

Join

Comparision Forecast

View Surf forecast
   
jeu. 09/21 2:18 6 14 mph 1013.7mb 68f 71f
2:12 2 13 mph 1013.9mb 68f 71f
2:06 6 14 mph 1013.9mb 68f 71f
2:00 6 14 mph 1013.8mb 68f 71f
1:54 7 14 mph 1013.8mb 68f 71f
1:48 6 14 mph 1013.7mb 68f 71f
1:42 6 15 mph 1013.7mb 68f 71f
1:36 6 13 mph 1013.7mb 68f 72f
1:30 7 17 mph 1013.8mb 68f 72f
1:24 6 13 mph 1013.8mb 68f 72f
1:18 5 16 mph 1013.8mb 68f 71f
1:12 8 20 mph 1013.9mb 68f 72f
1:06 5 14 mph 1014mb 68f 71f
1:00 5 14 mph 1014.1mb 68f 71f
12:54 7 20 mph 1014mb 68f 72f
12:48 7 14 mph 1014.1mb 68f 72f
12:42 7 14 mph 1014.1mb 68f 72f
12:36 3 10 mph 1014.2mb 68f 72f
12:30 6 16 mph 1014.3mb 68f 72f
12:24 7 11 mph 1014.2mb 68f 71f
12:18 5 10 mph 1014.2mb 68f 71f
12:12 6 17 mph 1014.2mb 68f 72f
12:06 6 13 mph 1014.1mb 68f 72f
12:00 7 17 mph 1014.1mb 68f 71f
11:54 6 14 mph 1014.1mb 68f 72f
11:48 7 14 mph 1014.1mb 68f 72f
11:42 3 14 mph 1014.1mb 68f 71f
11:36 5 11 mph 1014.2mb 68f 71f
11:30 3 14 mph 1014.2mb 68f 71f
11:24 3 10 mph 1014.2mb 68f 71f
11:18 3 13 mph 1014.3mb 68f 71f
11:12 5 10 mph 1014.2mb 68f 71f
11:06 6 11 mph 1014.2mb 68f 71f
11:00 7 16 mph 1014.2mb 68f 71f
10:54 7 15 mph 1014.2mb 68f 71f
10:48 5 18 mph 1014.3mb 68f 71f
10:42 6 13 mph 1014.3mb 68f 71f
10:36 7 14 mph 1014.2mb 68f 71f
10:30 6 14 mph 1014.2mb 68f 71f
10:24 6 14 mph 1014.2mb 68f 71f
10:18 7 13 mph 1014.2mb 68f 71f
10:12 8 16 mph 1014.1mb 68f 71f
10:06 3 13 mph 1014mb 68f 71f
10:00 5 11 mph 1014mb 68f 71f
9:54 3 17 mph 1013.9mb 68f 71f
9:48 8 17 mph 1013.7mb 68f 71f
9:42 8 17 mph 1013.6mb 68f 71f
9:36 6 17 mph 1013.5mb 68f 71f
9:30 8 16 mph 1013.5mb 68f 71f
9:24 8 16 mph 1013.6mb 68f 71f
9:18 9 14 mph 1013.7mb 68f 71f
9:12 7 11 mph 1013.7mb 68f 71f
9:06 6 13 mph 1013.6mb 68f 71f
9:00 5 13 mph 1013.5mb 68f 71f
8:48 6 15 mph 1013.3mb 68f 71f
8:42 6 13 mph 1013.2mb 68f 71f
8:36 7 11 mph 1013.2mb 68f 71f
8:30 5 10 mph 1013.1mb 68f 71f
8:24 6 11 mph 1013.1mb 68f 71f
8:18 5 14 mph 1013mb 68f 71f
8:12 8 16 mph 1012.7mb 68f 71f
8:06 6 15 mph 1012.7mb 68f 71f
8:00 9 14 mph 1012.7mb 68f 71f
7:54 7 11 mph 1012.7mb 68f 71f
7:48 5 15 mph 1012.7mb 68f 71f
7:42 6 18 mph 1012.7mb 68f 71f
7:36 9 17 mph 1012.7mb 68f 71f
7:30 6 14 mph 1012.8mb 68f 71f
7:24 6 11 mph 1012.7mb 68f 71f
7:18 6 14 mph 1012.6mb 68f 71f
7:12 8 14 mph 1012.4mb 68f 71f
7:06 3 14 mph 1012.3mb 68f 71f
7:00 6 13 mph 1012.3mb 68f 71f
6:54 7 17 mph 1012.3mb 68f 71f
6:48 7 14 mph 1012.2mb 68f 71f
6:42 6 17 mph 1012.2mb 68f 71f
6:36 7 13 mph 1012.2mb 68f 71f
6:30 8 14 mph 1012.1mb 68f 71f
6:24 8 15 mph 1012mb 68f 71f
6:18 6 14 mph 1012mb 68f 71f
6:12 7 13 mph 1012mb 68f 71f
6:06 7 17 mph 1011.9mb 68f 72f
6:00 9 16 mph 1011.8mb 68f 72f
5:54 7 14 mph 1011.7mb 68f 72f
5:48 3 16 mph 1011.7mb 68f 72f
5:42 7 14 mph 1011.6mb 68f 72f
5:36 2 10 mph 1011.4mb 68f 72f
5:30 6 13 mph 1011.3mb 68f 72f
5:24 3 14 mph 1011.3mb 68f 72f
5:18 6 15 mph 1011.3mb 68f 72f
5:12 8 16 mph 1011.1mb 68f 72f
5:06 6 16 mph 1011.1mb 68f 72f
5:00 9 15 mph 1011.1mb 68f 72f
4:54 9 14 mph 1011.1mb 68f 72f
4:48 3 17 mph 1011mb 68f 72f
4:42 9 18 mph 1011mb 68f 72f
4:36 10 20 mph 1011mb 68f 73f
4:30 8 20 mph 1010.9mb 68f 73f
4:24 9 18 mph 1010.9mb 68f 73f
4:18 7 18 mph 1010.9mb 68f 72f
4:12 9 14 mph 1010.9mb 68f 73f
4:06 5 14 mph 1010.9mb 68f 72f
4:00 8 15 mph 1010.9mb 68f 73f
3:54 11 20 mph 1010.8mb 68f 73f
3:48 9 16 mph 1010.8mb 68f 73f
3:42 9 14 mph 1010.8mb 68f 73f
3:36 3 11 mph 1010.8mb 68f 73f
3:30 6 14 mph 1010.8mb 68f 73f
3:24 7 11 mph 1010.8mb 68f 73f
3:18 5 15 mph 1010.7mb 68f 73f
3:12 7 15 mph 1010.8mb 68f 73f
3:06 6 13 mph 1010.8mb 68f 73f
3:00 7 14 mph 1010.8mb 68f 73f
2:54 5 14 mph 1010.8mb 68f 73f
2:48 6 13 mph 1010.7mb 68f 73f
2:42 5 13 mph 1010.7mb 68f 73f
2:36 5 11 mph 1010.7mb 68f 73f
2:30 5 15 mph 1010.6mb 68f 73f
2:24 8 16 mph 1010.6mb 68f 73f
2:18 8 14 mph 1010.6mb 68f 73f
2:12 8 14 mph 1010.5mb 68f 73f
2:06 7 15 mph 1010.5mb 68f 73f
2:00 6 15 mph 1010.6mb 68f 73f
1:54 6 16 mph 1010.7mb 68f 73f
1:48 5 17 mph 1010.7mb 68f 73f
1:42 7 16 mph 1010.6mb 68f 73f
1:36 6 15 mph 1010.7mb 68f 73f
1:30 6 14 mph 1010.6mb 68f 73f
1:24 7 16 mph 1010.6mb 68f 73f
1:18 7 15 mph 1010.5mb 68f 73f
1:12 6 14 mph 1010.6mb 68f 73f
1:06 6 14 mph 1010.5mb 68f 73f
1:00 5 13 mph 1010.5mb 68f 73f
12:54 8 16 mph 1010.5mb 68f 73f
12:48 7 16 mph 1010.5mb 68f 73f
12:42 5 10 mph 1010.6mb 68f 73f
12:36 6 15 mph 1010.5mb 68f 73f
12:30 5 10 mph 1010.4mb 68f 73f
12:24 6 11 mph 1010.4mb 68f 73f
12:18 5 14 mph 1010.5mb 68f 73f
12:12 6 14 mph 1010.5mb 68f 73f
12:06 5 11 mph 1010.5mb 68f 73f
12:00 5 11 mph 1010.5mb 68f 73f
mer. 09/20 11:54 5 13 mph 1010.6mb 68f 73f
11:48 8 14 mph 1010.6mb 68f 73f
11:42 7 16 mph 1010.6mb 68f 73f
11:36 8 15 mph 1010.7mb 68f 73f
11:30 6 10 mph 1010.7mb 68f 73f
11:24 6 14 mph 1010.6mb 68f 73f
11:18 6 13 mph 1010.6mb 68f 73f
11:12 6 13 mph 1010.5mb 68f 73f
11:06 5 13 mph 1010.5mb 68f 73f
11:00 8 14 mph 1010.5mb 68f 73f
10:54 8 15 mph 1010.5mb 68f 73f
10:48 5 13 mph 1010.6mb 68f 72f
10:42 5 14 mph 1010.6mb 68f 72f
10:36 8 14 mph 1010.7mb 68f 72f
10:30 7 11 mph 1010.7mb 68f 72f
10:24 3 13 mph 1010.8mb 68f 72f
10:18 3 9 mph 1010.8mb 68f 72f
10:12 7 13 mph 1010.8mb 68f 72f
10:06 7 15 mph 1010.8mb 68f 72f
10:00 5 14 mph 1010.7mb 68f 71f
9:54 7 14 mph 1010.6mb 68f 71f
9:48 8 14 mph 1010.6mb 68f 71f
9:42 9 15 mph 1010.6mb 68f 72f
9:36 8 16 mph 1010.6mb 68f 72f
9:30 5 13 mph 1010.6mb 68f 72f
9:24 10 15 mph 1010.6mb 68f 72f
9:18 8 17 mph 1010.6mb 68f 72f
9:12 8 14 mph 1010.6mb 68f 72f
9:06 7 16 mph 1010.6mb 68f 72f
9:00 7 15 mph 1010.6mb 68f 72f
8:54 9 16 mph 1010.5mb 68f 72f
8:48 8 16 mph 1010.5mb 68f 72f
8:42 3 14 mph 1010.6mb 68f 72f
8:36 8 15 mph 1010.6mb 68f 71f
8:30 7 14 mph 1010.7mb 68f 71f
8:24 6 14 mph 1010.7mb 68f 71f
8:18 7 14 mph 1010.7mb 68f 71f
8:12 6 13 mph 1010.7mb 68f 71f
8:06 7 15 mph 1010.7mb 68f 71f
8:00 5 11 mph 1010.6mb 68f 71f
7:54 6 15 mph 1010.6mb 68f 71f
7:48 8 16 mph 1010.5mb 68f 71f
7:42 9 16 mph 1010.5mb 68f 71f
7:36 8 16 mph 1010.5mb 68f 71f
7:30 6 14 mph 1010.4mb 68f 71f
7:24 7 15 mph 1010.3mb 68f 71f
7:18 9 18 mph 1010.2mb 68f 71f
7:12 5 11 mph 1010.2mb 68f 71f
7:06 6 14 mph 1010.2mb 68f 71f
7:00 2 14 mph 1010.1mb 68f 71f
6:54 5 15 mph 1010.1mb 68f 71f
6:48 3 14 mph 1010.1mb 68f 71f
6:42 7 14 mph 1010mb 68f 71f
6:36 6 17 mph 1010mb 68f 72f
6:30 8 16 mph 1009.9mb 69f 72f
6:24 8 14 mph 1009.9mb 68f 72f
6:18 8 17 mph 1010mb 68f 72f
6:12 9 14 mph 1009.9mb 68f 72f
6:06 9 15 mph 1009.8mb 68f 72f
6:00 10 18 mph 1009.7mb 68f 72f
5:54 9 16 mph 1009.6mb 69f 72f
5:48 9 18 mph 1009.6mb 69f 72f
5:42 10 18 mph 1009.5mb 69f 72f
5:36 8 16 mph 1009.5mb 69f 72f
5:30 8 17 mph 1009.5mb 68f 72f
5:24 7 16 mph 1009.4mb 68f 72f
5:18 8 15 mph 1009.4mb 68f 72f
5:12 6 17 mph 1009.4mb 69f 73f
5:06 7 18 mph 1009.3mb 69f 73f
5:00 9 21 mph 1009.1mb 69f 73f
4:54 14 21 mph 1009mb 69f 73f
4:48 13 18 mph 1009mb 68f 73f
4:42 9 17 mph 1009mb 68f 73f
4:36 8 21 mph 1008.9mb 68f 73f
4:30 13 17 mph 1009mb 69f 73f
4:24 7 14 mph 1009.1mb 69f 72f
4:18 8 21 mph 1009.1mb 69f 72f
4:12 8 18 mph 1009.1mb 68f 72f
4:06 8 18 mph 1009.1mb 68f 73f
4:00 8 16 mph 1009mb 68f 73f
3:54 6 15 mph 1009mb 68f 74f
3:48 5 16 mph 1008.9mb 68f 73f
3:42 7 22 mph 1008.9mb 68f 74f
3:36 8 16 mph 1008.9mb 69f 74f
3:30 6 20 mph 1008.9mb 68f 74f
3:24 7 16 mph 1008.9mb 69f 73f
3:18 6 16 mph 1008.9mb 69f 73f
3:12 5 15 mph 1008.8mb 69f 73f
3:06 7 14 mph 1008.8mb 69f 73f
3:00 7 18 mph 1008.8mb 68f 73f
2:54 7 14 mph 1008.8mb 68f 72f
2:48 6 16 mph 1008.9mb 68f 72f
2:42 7 18 mph 1008.9mb 68f 72f
2:36 5 14 mph 1008.9mb 68f 73f
2:30 6 16 mph 1008.8mb 68f 72f
2:24 9 16 mph 1008.8mb 68f 72f
2:18 10 18 mph 1008.8mb 68f 73f
2:12 8 14 mph 1008.7mb 68f 73f
2:06 11 21 mph 1008.6mb 68f 73f
2:00 5 14 mph 1008.5mb 68f 73f
1:54 7 13 mph 1008.4mb 68f 73f
1:48 10 18 mph 1008.4mb 68f 73f
1:42 8 17 mph 1008.4mb 68f 73f
1:36 8 22 mph 1008.4mb 68f 73f
1:30 6 16 mph 1008.4mb 68f 73f
1:24 9 17 mph 1008.4mb 68f 73f
1:18 7 18 mph 1008.4mb 68f 73f
1:12 10 21 mph 1008.4mb 68f 73f
1:06 3 16 mph 1008.5mb 68f 73f
1:00 6 16 mph 1008.6mb 68f 73f
12:54 10 18 mph 1008.6mb 68f 73f
12:48 9 16 mph 1008.7mb 68f 73f
12:42 8 16 mph 1008.6mb 68f 73f
12:36 6 16 mph 1008.8mb 68f 73f
12:30 9 13 mph 1008.8mb 68f 73f
12:24 8 17 mph 1008.8mb 68f 73f
12:18 6 13 mph 1008.8mb 68f 72f
12:12 7 14 mph 1008.7mb 68f 73f
12:06 6 15 mph 1008.7mb 68f 72f
12:00 5 17 mph 1008.7mb 68f 73f
11:54 6 16 mph 1008.6mb 68f 73f
11:48 6 16 mph 1008.6mb 68f 73f
11:42 7 14 mph 1008.5mb 68f 73f
11:36 6 16 mph 1008.6mb 68f 72f
11:30 6 11 mph 1008.6mb 68f 72f
11:24 7 14 mph 1008.6mb 68f 72f
11:18 8 14 mph 1008.6mb 68f 72f
11:12 7 13 mph 1008.6mb 68f 72f
11:06 6 14 mph 1008.7mb 68f 72f
11:00 5 15 mph 1008.7mb 68f 72f
10:54 7 14 mph 1008.6mb 68f 72f
10:48 5 11 mph 1008.6mb 68f 72f
10:42 6 13 mph 1008.6mb 68f 72f
10:36 9 18 mph 1008.5mb 68f 71f
10:30 7 16 mph 1008.5mb 68f 71f
10:24 7 15 mph 1008.6mb 68f 71f
10:18 10 17 mph 1008.6mb 68f 71f
10:12 7 17 mph 1008.7mb 68f 71f
10:06 7 15 mph 1008.8mb 68f 71f
10:00 3 14 mph 1008.9mb 68f 71f
9:54 6 13 mph 1008.9mb 68f 71f
9:48 9 17 mph 1009mb 68f 71f
9:42 5 15 mph 1009.1mb 68f 71f
9:36 7 16 mph 1009mb 68f 71f
9:30 6 17 mph 1009mb 68f 71f
9:24 10 18 mph 1009mb 68f 71f
9:18 8 14 mph 1009.2mb 68f 71f
9:12 7 13 mph 1009.1mb 68f 71f
9:06 7 15 mph 1009.1mb 68f 71f
9:00 5 11 mph 1009mb 68f 71f
8:54 7 13 mph 1008.9mb 68f 71f
8:48 5 13 mph 1008.8mb 68f 70f
8:42 5 15 mph 1008.7mb 68f 70f
8:36 6 11 mph 1008.7mb 68f 70f
8:30 5 14 mph 1008.6mb 68f 70f
8:24 5 11 mph 1008.5mb 68f 70f
8:18 7 13 mph 1008.5mb 68f 70f
8:12 6 14 mph 1008.4mb 68f 70f
8:06 5 11 mph 1008.4mb 68f 70f
8:00 3 11 mph 1008.5mb 68f 70f
7:54 3 10 mph 1008.6mb 68f 70f
7:48 6 13 mph 1008.6mb 68f 70f
7:42 5 15 mph 1008.6mb 68f 70f
7:36 6 11 mph 1008.5mb 68f 70f
7:30 6 14 mph 1008.4mb 68f 70f
7:24 6 14 mph 1008.4mb 68f 70f
7:18 5 10 mph 1008.5mb 68f 69f
7:12 5 14 mph 1008.5mb 68f 69f
7:06 6 13 mph 1008.4mb 68f 69f
7:00 6 13 mph 1008.3mb 68f 69f
6:54 5 10 mph 1008.3mb 68f 69f
6:48 6 11 mph 1008.4mb 68f 69f
6:42 7 14 mph 1008.4mb 68f 69f
6:36 7 14 mph 1008.4mb 68f 69f
6:30 5 11 mph 1008.4mb 68f 69f
6:24 5 14 mph 1008.3mb 68f 69f
6:18 5 16 mph 1008.3mb 68f 70f
6:12 7 14 mph 1008.2mb 68f 69f
6:06 7 16 mph 1008.3mb 68f 69f
6:00 5 14 mph 1008.4mb 68f 69f
5:54 6 11 mph 1008.4mb 69f 69f
5:48 3 11 mph 1008.4mb 69f 69f
5:42 5 9 mph 1008.4mb 68f 69f
5:36 3 9 mph 1008.4mb 69f 69f
5:30 6 11 mph 1008.4mb 69f 69f
5:24 5 11 mph 1008.4mb 69f 69f
5:18 2 11 mph 1008.4mb 69f 68f
5:12 5 11 mph 1008.4mb 69f 68f
5:06 6 11 mph 1008.3mb 69f 68f
5:00 6 9 mph 1008.4mb 69f 68f
4:54 5 9 mph 1008.5mb 69f 68f
4:48 3 10 mph 1008.4mb 69f 68f
4:42 5 14 mph 1008.3mb 69f 68f
4:36 5 10 mph 1008.3mb 69f 68f
4:30 6 13 mph 1008.4mb 69f 68f
4:24 2 11 mph 1008.5mb 69f 68f
4:18 5 8 mph 1008.6mb 69f 68f
4:12 5 10 mph 1008.6mb 69f 68f
4:06 5 11 mph 1008.6mb 69f 68f
4:00 5 10 mph 1008.7mb 69f 68f
3:54 7 14 mph 1008.7mb 69f 68f
3:48 6 14 mph 1008.8mb 69f 68f
3:42 7 16 mph 1008.7mb 69f 68f
3:36 6 13 mph 1008.7mb 69f 68f
3:30 6 13 mph 1008.7mb 69f 68f
3:24 5 10 mph 1008.8mb 69f 68f
3:18 5 13 mph 1008.7mb 69f 68f
3:12 6 14 mph 1008.7mb 69f 68f
3:06 5 14 mph 1008.9mb 69f 68f
3:00 7 13 mph 1009mb 69f 68f
2:54 5 9 mph 1009.2mb 69f 68f
2:48 5 10 mph 1009.3mb 69f -
2:42 3 14 mph 1009.3mb 69f -
2:36 7 13 mph 1009.1mb 69f -
2:30 5 14 mph 1009.2mb 69f 68f
2:24 6 14 mph 1009.3mb 69f 68f
2:18 5 10 mph 1009.6mb 69f 68f
2:12 5 10 mph 1009.7mb 69f 68f
2:06 5 9 mph 1009.7mb 69f 67f
2:00 3 13 mph 1009.9mb 69f 68f
1:54 5 15 mph 1009.8mb 69f 68f
1:48 6 9 mph 1009.9mb - -
1:42 7 14 mph 1010mb - -
1:36 6 13 mph 1010mb - -
1:30 6 11 mph 1010.2mb 69f 68f
1:24 6 11 mph 1010.4mb 69f 68f
1:18 3 13 mph 1010.4mb 69f 68f
1:12 7 13 mph 1010.3mb 69f 68f
1:06 3 8 mph 1010.5mb 69f 68f
1:00 6 11 mph 1010.4mb 69f 68f
12:54 5 8 mph 1010.5mb 69f 68f
12:48 3 10 mph 1010.5mb 69f 68f
12:42 7 17 mph 1010.4mb 69f 68f
12:36 5 8 mph 1010.5mb 69f 68f
12:30 5 14 mph 1010.5mb 69f 68f
12:24 5 10 mph 1010.5mb 69f 68f
12:18 3 8 mph 1010.6mb 69f 68f
12:12 6 13 mph 1010.5mb 69f 68f
12:06 6 13 mph 1010.5mb 69f 68f
12:00 5 13 mph 1010.7mb 69f 68f
mar. 09/19 11:54 5 11 mph 1010.7mb 69f 68f
11:48 5 11 mph 1010.8mb 69f 68f
11:42 3 13 mph 1010.8mb 69f 68f
11:36 3 9 mph 1010.8mb 69f 68f
11:30 5 9 mph 1010.8mb 69f 68f
11:24 3 10 mph 1010.8mb 69f 68f
11:18 6 10 mph 1010.8mb 68f 68f
11:12 7 11 mph 1010.9mb 69f 68f
11:06 5 10 mph 1010.9mb 69f 68f
11:00 6 10 mph 1011.1mb 69f 69f
10:54 7 10 mph 1011.2mb 68f 69f
10:48 5 13 mph 1011.2mb 68f 69f
10:42 3 11 mph 1011.2mb 68f 69f
10:36 3 10 mph 1011.3mb 68f 69f
10:30 7 11 mph 1011.2mb 68f 69f
10:24 6 10 mph 1011.2mb 68f 69f
10:18 7 11 mph 1011.3mb 69f 69f
10:12 6 11 mph 1011.4mb 68f 69f
10:06 6 10 mph 1011.4mb 68f 69f
10:00 6 11 mph 1011.5mb 68f 69f
9:54 6 10 mph 1011.5mb 68f 69f
9:48 5 10 mph 1011.5mb 68f 69f
9:42 5 9 mph 1011.6mb 68f 69f
9:36 6 10 mph 1011.5mb 68f 69f
9:30 5 9 mph 1011.5mb 68f 69f
9:24 5 13 mph 1011.5mb 68f 69f
9:18 3 11 mph 1011.5mb 68f 69f
9:12 5 10 mph 1011.6mb 68f 69f
9:06 5 9 mph 1011.7mb 68f 69f
9:00 6 13 mph 1011.7mb 68f 69f
8:54 5 11 mph 1011.7mb 68f 69f
8:48 3 9 mph 1011.8mb 68f 69f
8:42 5 10 mph 1011.7mb 68f 69f
8:36 5 10 mph 1011.8mb 68f 69f
8:30 5 10 mph 1011.8mb 68f 69f
8:24 5 13 mph 1011.9mb 68f 69f
8:18 6 13 mph 1011.8mb 68f 69f
8:12 5 10 mph 1011.8mb 68f 69f
8:06 5 13 mph 1011.7mb 68f 69f
8:00 5 10 mph 1011.5mb 68f 69f
7:54 6 10 mph 1011.6mb 68f 69f
7:48 6 11 mph 1011.5mb 68f 69f
7:42 8 18 mph 1011.5mb 68f 69f
7:36 6 11 mph 1011.6mb 68f 69f
7:30 3 10 mph 1011.7mb 68f 69f
7:24 6 14 mph 1011.8mb 68f 69f
7:18 6 9 mph 1011.9mb 68f 69f
7:12 6 10 mph 1011.9mb 68f 69f
7:06 5 10 mph 1012mb 68f 69f
7:00 5 10 mph 1012.1mb 68f 69f
6:54 6 10 mph 1012.2mb 68f 69f
6:48 6 8 mph 1012.2mb 67f 69f
6:42 5 9 mph 1012.3mb 67f 69f
6:36 6 13 mph 1012.3mb 67f 69f
6:30 6 11 mph 1012.3mb 67f 69f
6:24 7 11 mph 1012.2mb 67f 69f
6:18 7 11 mph 1012.2mb 67f 69f
6:12 3 10 mph 1012.3mb 67f 69f
6:06 6 10 mph 1012.3mb 67f 69f
6:00 5 9 mph 1012.3mb 68f 69f
5:54 5 8 mph 1012.3mb 67f 69f
5:48 5 9 mph 1012.4mb 67f 69f
5:42 5 11 mph 1012.3mb 67f 69f
5:36 5 10 mph 1012.3mb 67f 69f
5:30 3 8 mph 1012.4mb 68f 69f
5:24 6 11 mph 1012.5mb 68f 69f
5:18 5 9 mph 1012.6mb 69f 69f
5:12 6 9 mph 1012.6mb 69f 69f
5:06 8 14 mph 1012.7mb 69f 69f
5:00 7 17 mph 1012.7mb 69f 70f
4:54 7 11 mph 1012.7mb 69f 71f
4:48 7 13 mph 1012.5mb 69f 72f
4:42 5 9 mph 1012.5mb 69f 72f
4:36 7 11 mph 1012.5mb 69f 72f
4:30 7 11 mph 1012.4mb 69f 72f
4:24 6 10 mph 1012.5mb 69f 72f
4:18 5 11 mph 1012.4mb 69f 72f
4:12 5 10 mph 1012.5mb 69f 73f
4:06 6 13 mph 1012.6mb 69f 72f
4:00 5 9 mph 1012.6mb 69f 72f
3:54 6 11 mph 1012.7mb 69f 72f
3:48 6 10 mph 1012.7mb 69f 72f
3:42 3 14 mph 1012.8mb 69f 72f
3:36 6 16 mph 1012.7mb 69f 72f
3:30 8 13 mph 1012.7mb 69f 72f
3:24 6 11 mph 1012.7mb 69f 72f
3:18 6 14 mph 1012.7mb 69f 72f
3:12 6 13 mph 1012.8mb 69f 72f
3:06 6 13 mph 1012.9mb 69f 72f
3:00 5 13 mph 1012.9mb 69f 71f
2:54 6 13 mph 1013mb 69f 72f
2:48 5 16 mph 1013.1mb 69f 72f
2:42 6 11 mph 1013mb 69f 71f
2:36 5 13 mph 1013.1mb 69f 71f
2:30 6 13 mph 1013.3mb 69f 71f
2:24 7 16 mph 1013.4mb 69f 71f
2:18 7 15 mph 1013.4mb 69f 71f
2:12 6 13 mph 1013.4mb 69f 71f
2:06 6 13 mph 1013.7mb 69f 71f
2:00 6 17 mph 1013.9mb 69f 71f
1:54 6 13 mph 1014.1mb 69f 71f
1:48 6 11 mph 1014.2mb 69f 71f
1:42 7 11 mph 1014.4mb 69f 71f
1:36 7 11 mph 1014.5mb 69f 71f
1:30 5 9 mph 1014.6mb 69f 70f
1:24 6 10 mph 1014.7mb 69f 70f
1:18 3 10 mph 1014.7mb 69f 70f
1:12 3 14 mph 1014.8mb 69f 70f
1:06 6 9 mph 1014.9mb 69f 70f
1:00 3 8 mph 1015.2mb 69f 69f
12:54 5 8 mph 1015.2mb 69f 69f
12:48 6 14 mph 1015.2mb 69f 69f
12:42 6 15 mph 1015.3mb 69f 69f
12:36 6 11 mph 1015.4mb 69f 69f
12:30 8 15 mph 1015.4mb 69f 69f
12:24 7 15 mph 1015.5mb 69f 69f
12:18 6 15 mph 1015.7mb 69f 69f
12:12 3 11 mph 1016mb 69f 69f
12:06 6 9 mph 1016.3mb 69f 69f
12:00 5 10 mph 1016.3mb 69f 69f
11:54 5 11 mph 1016.5mb 69f 69f
11:48 5 9 mph 1016.7mb 69f 69f
11:42 5 10 mph 1016.6mb 69f 69f
11:36 3 9 mph 1016.6mb 69f 69f
11:30 6 10 mph 1016.7mb 69f 69f
11:24 5 10 mph 1016.7mb 69f 69f
11:18 5 9 mph 1016.8mb 69f 69f
11:12 6 9 mph 1016.8mb 69f 69f
11:06 6 9 mph 1016.8mb 68f 70f
11:00 6 9 mph 1016.8mb 68f 70f
10:54 7 10 mph 1016.7mb 68f 70f
10:48 7 10 mph 1016.6mb 68f 70f
10:42 7 10 mph 1016.6mb 68f 70f
10:36 3 13 mph 1016.5mb 68f 70f
10:30 5 10 mph 1016.4mb 68f 70f
10:24 6 11 mph 1016.5mb 68f 70f
10:18 5 8 mph 1016.4mb 68f 70f
10:12 5 9 mph 1016.5mb 68f 70f
10:06 6 10 mph 1016.6mb 68f 70f
10:00 6 10 mph 1016.5mb 68f 70f
9:54 5 10 mph 1016.6mb 68f 69f
9:48 5 9 mph 1016.6mb 68f 69f
9:42 5 10 mph 1016.7mb 68f 69f
9:36 5 9 mph 1016.6mb 69f 69f
9:30 5 9 mph 1016.6mb 68f 69f
9:24 3 9 mph 1016.6mb 68f 68f
9:18 6 10 mph 1016.6mb 68f 68f
9:12 3 8 mph 1016.7mb 68f 68f
9:06 2 9 mph 1016.8mb 68f 68f
9:00 3 7 mph 1016.9mb 68f 68f
8:54 3 10 mph 1017mb 68f 68f
8:48 3 10 mph 1017.1mb 68f 68f
8:42 6 9 mph 1017mb 68f 68f
8:36 5 9 mph 1017.1mb 68f 68f
8:30 5 9 mph 1017.1mb 68f 67f
8:24 3 8 mph 1017mb 68f 67f
8:18 5 13 mph 1016.9mb 68f 67f
8:12 6 11 mph 1016.8mb 68f 67f
8:06 6 11 mph 1016.9mb 68f 67f
8:00 6 10 mph 1017mb 68f 67f
7:54 2 8 mph 1016.9mb 68f 67f
7:48 5 10 mph 1016.8mb 68f 67f
7:42 5 9 mph 1016.8mb 68f 67f
7:36 5 9 mph 1016.9mb 68f 67f
7:30 3 7 mph 1016.9mb 68f 67f
7:24 5 9 mph 1016.9mb 68f 67f
7:18 5 9 mph 1017mb 68f 67f
7:12 5 8 mph 1017mb 68f 67f
7:06 6 11 mph 1017.1mb 68f 67f
7:00 6 10 mph 1017.1mb 68f 67f
6:54 5 10 mph 1017.1mb 68f 67f
6:48 3 8 mph 1017.1mb 68f 67f
6:42 5 9 mph 1017.1mb 68f 67f
6:36 5 11 mph 1017.1mb 68f 67f
6:30 3 8 mph 1017.1mb 68f 67f
6:24 5 9 mph 1017mb 68f 67f
6:18 2 7 mph 1017.1mb 68f 67f
6:12 6 8 mph 1017.2mb 68f 67f
6:06 5 8 mph 1017.1mb 68f 67f
6:00 5 9 mph 1017.1mb 68f 67f
5:54 5 8 mph 1017.1mb 68f 67f
5:48 5 9 mph 1017mb 68f 67f
5:42 5 8 mph 1017.1mb 68f 67f
5:36 6 9 mph 1017mb 68f 67f
5:30 6 10 mph 1017mb 68f 67f
5:24 6 9 mph 1017.1mb 68f 67f
5:18 5 9 mph 1017.2mb 68f 67f
5:12 5 7 mph 1017.3mb 69f 67f
5:06 2 6 mph 1017.3mb 69f 67f
5:00 2 6 mph 1017.2mb 69f 67f
4:54 3 7 mph 1017.3mb 70f 67f
4:48 2 7 mph 1017.5mb 70f 67f
4:42 5 8 mph 1017.4mb 70f 67f
4:36 3 7 mph 1017.6mb 70f 67f
4:30 3 7 mph 1017.6mb 70f 67f
4:24 3 8 mph 1017.6mb 70f 67f
4:18 3 7 mph 1017.6mb 70f 67f
4:12 3 8 mph 1017.6mb 70f 67f
4:06 5 9 mph 1017.6mb 70f 67f
4:00 5 7 mph 1017.6mb 70f 67f
3:54 2 7 mph 1017.6mb 70f 68f
3:48 3 10 mph 1017.7mb 70f 68f
3:42 3 7 mph 1017.7mb 70f 68f
3:36 3 7 mph 1017.8mb 70f 68f
3:30 2 7 mph 1017.8mb 70f 68f
3:24 3 8 mph 1017.8mb 70f 68f
3:18 3 9 mph 1017.8mb 70f 68f
3:12 2 8 mph 1017.8mb 70f 68f
3:06 6 8 mph 1017.8mb 70f 68f
3:00 3 7 mph 1017.9mb 70f 68f
2:54 3 7 mph 1017.9mb 70f 68f
2:48 3 7 mph 1018mb 70f -
2:42 2 7 mph 1018mb 70f -
2:36 3 8 mph 1017.9mb 70f -
2:30 5 10 mph 1017.9mb 70f 68f
2:24 5 7 mph 1018.1mb 70f 68f
2:18 3 7 mph 1018.1mb 70f 68f
2:12 3 7 mph 1018.2mb 70f 69f
2:06 2 7 mph 1018.3mb 70f 69f
2:00 3 7 mph 1018.3mb 70f 69f
1:54 3 6 mph 1018.3mb 70f 69f
1:48 2 9 mph 1018.4mb 70f 69f
1:42 3 7 mph 1018.4mb 70f 69f
1:36 2 8 mph 1018.4mb 69f 69f
1:30 3 6 mph 1018.5mb 69f 69f
1:24 3 8 mph 1018.6mb 69f 69f
1:18 5 8 mph 1018.6mb 69f 69f
1:12 6 8 mph 1018.7mb 69f 69f
1:06 5 9 mph 1018.6mb 69f 69f
1:00 6 8 mph 1018.6mb 70f 69f
12:54 5 7 mph 1018.6mb 70f 69f
12:48 3 6 mph 1018.7mb 70f 69f
12:42 5 9 mph 1018.8mb 70f 69f
12:36 3 5 mph 1018.8mb 70f 69f
12:30 5 7 mph 1018.8mb 70f 69f
12:24 5 8 mph 1018.8mb 69f 69f
12:18 6 8 mph 1018.9mb 69f 69f
12:12 3 7 mph 1018.9mb 69f 69f
12:06 6 7 mph 1018.8mb 69f 69f
12:00 2 6 mph 1018.8mb 69f 69f
lun. 09/18 11:54 3 7 mph 1018.9mb 69f 70f
11:48 3 7 mph 1019mb 69f 70f
11:42 3 6 mph 1019mb 69f 70f
11:36 1 6 mph 1019mb 69f 70f
11:30 2 7 mph 1019mb 69f 70f
11:24 2 7 mph 1019.1mb 69f 70f
11:18 3 6 mph 1019.1mb 69f 70f
11:12 2 6 mph 1019.2mb 69f 70f
11:06 3 5 mph 1019.2mb 69f 70f
11:00 3 6 mph 1019.3mb 69f 70f
10:54 2 6 mph 1019.3mb 69f 70f
10:48 3 7 mph 1019.4mb 69f 70f
10:42 2 5 mph 1019.3mb 69f 70f
10:36 1 6 mph 1019.4mb 69f 70f
10:30 2 5 mph 1019.5mb 68f 70f
10:24 2 5 mph 1019.4mb 68f 70f
10:18 2 6 mph 1019.5mb 68f 70f
10:12 3 6 mph 1019.6mb 68f 70f
10:06 2 3 mph 1019.7mb 68f 70f
10:00 5 7 mph 1019.6mb 69f 70f
9:54 2 6 mph 1019.6mb 68f 70f
9:48 3 6 mph 1019.5mb 69f 70f
9:42 2 6 mph 1019.5mb 69f 70f
9:36 2 6 mph 1019.5mb 69f 70f
9:30 2 6 mph 1019.6mb 69f 70f
9:24 1 6 mph 1019.7mb 68f 70f
9:18 2 7 mph 1019.7mb 68f 70f
9:12 2 7 mph 1019.8mb 68f 70f
9:06 2 6 mph 1019.8mb 69f 70f
9:00 3 6 mph 1019.7mb 69f 70f
8:54 2 6 mph 1019.7mb 69f 70f
8:48 2 5 mph 1019.7mb 68f 70f
8:42 1 7 mph 1019.7mb 68f 70f
8:36 3 6 mph 1019.6mb 69f 70f
8:30 1 6 mph 1019.7mb 69f 70f
8:24 3 5 mph 1019.8mb 69f 70f
8:18 3 5 mph 1019.8mb 69f 70f
8:12 1 5 mph 1019.8mb 69f 71f
8:06 2 6 mph 1019.7mb 69f 71f
8:00 2 5 mph 1019.7mb 69f 71f
7:54 2 6 mph 1019.5mb 69f 71f
7:48  -  3 mph - - -
7:42 2 3 mph - - -
7:36 2 5 mph - - -
7:30 2 5 mph 1019.4mb 69f 71f
7:24 2 5 mph 1019.3mb 69f 71f
7:18 2 5 mph 1019.3mb 69f 71f
7:12 2 5 mph 1019.2mb 69f 71f
7:06 1 3 mph 1019.2mb 69f 71f
7:00 2 5 mph 1019.2mb 69f 71f
6:54 2 5 mph 1019.2mb 69f 71f
6:48 2 5 mph 1019.2mb 68f 71f
6:42 1 5 mph 1019.2mb 68f 71f
6:36 1 5 mph 1019.2mb 68f 71f
6:30 2 3 mph 1019.2mb 68f 71f
6:24 2 5 mph 1019.2mb 68f 71f
6:18 3 6 mph 1019.2mb 68f 71f
6:12 3 6 mph 1019.2mb 68f 71f
6:06 3 5 mph 1019.2mb 68f 72f
6:00 2 6 mph 1019.2mb 68f 72f
5:54 2 5 mph 1019.3mb 68f 72f
5:48 2 5 mph 1019.2mb 68f 72f
5:42 3 6 mph 1019.3mb 69f 72f
5:36 3 8 mph 1019.3mb 68f 72f
5:30 2 6 mph 1019.3mb 68f 72f
5:24 3 7 mph 1019.3mb 68f 72f
5:18 3 5 mph 1019.3mb 69f 72f
5:12 3 6 mph 1019.3mb 68f 72f
5:06 5 7 mph 1019.4mb 68f 72f
5:00 6 9 mph 1019.4mb 68f 72f
4:54 5 8 mph 1019.4mb 68f 72f
4:48 3 7 mph 1019.3mb 68f 72f
4:42 6 13 mph 1019.3mb 68f 72f
4:36 7 13 mph 1019.4mb 69f 72f
4:30 3 7 mph 1019.4mb 69f 72f
4:24 5 6 mph 1019.3mb 69f 72f
4:18 6 8 mph 1019.3mb 69f 71f
4:12 6 7 mph 1019.3mb 70f 72f
4:06 5 7 mph 1019.3mb 70f 72f
4:00 3 6 mph 1019.3mb 70f 72f
3:54 5 9 mph 1019.3mb 70f 73f
3:48 2 5 mph 1019.3mb 70f 73f
3:42 5 8 mph 1019.4mb 70f 73f
3:36 6 7 mph 1019.5mb 70f 73f
3:30 3 8 mph 1019.5mb 70f 73f
3:24 5 10 mph 1019.6mb 70f 73f
3:18 3 8 mph 1019.6mb 70f 73f
3:12 5 6 mph 1019.5mb 70f 73f
3:06 5 7 mph 1019.4mb 70f 73f
3:00 5 8 mph 1019.4mb 70f 73f
2:54 5 8 mph 1019.5mb 70f 73f
2:48 7 10 mph 1019.5mb 70f 73f
2:42 2 7 mph 1019.5mb 70f 73f
2:36 3 7 mph 1019.5mb 70f 73f
2:30 3 7 mph 1019.5mb 70f 73f
2:24 3 7 mph 1019.6mb 70f 73f
2:18 5 7 mph 1019.6mb 70f 73f
2:12 3 6 mph 1019.6mb 70f 73f
2:06 3 6 mph 1019.7mb 70f 72f
2:00 2 8 mph 1019.7mb 70f 72f
1:54 6 9 mph 1019.7mb 70f 71f
1:48 6 8 mph 1019.8mb 70f 71f
1:42 3 8 mph 1019.8mb 70f 71f
1:36 7 9 mph 1019.8mb 70f 71f
1:30 6 9 mph 1019.9mb 70f 71f
1:24 5 8 mph 1019.9mb 70f 71f
1:18 3 7 mph 1020mb 70f 71f
1:12 3 6 mph 1020mb 70f 71f
1:06 3 6 mph 1020.1mb 70f 71f
1:00 5 7 mph 1020.1mb 70f 71f
12:54 3 7 mph 1020.2mb 70f 71f
12:48 6 9 mph 1020.3mb 70f 71f
12:42 5 7 mph 1020.4mb 69f 71f
12:36 3 6 mph 1020.4mb 70f 71f
12:30 5 7 mph 1020.4mb 70f 71f
12:24  -  6 mph 1020.5mb 70f 71f
12:18 5 7 mph 1020.5mb 70f 70f
12:12 2 9 mph 1020.5mb 70f 71f
12:06 3 7 mph 1020.4mb 70f 71f
12:00 6 8 mph 1020.4mb 70f 70f
11:54 6 9 mph 1020.4mb 70f 70f
11:48 6 9 mph 1020.4mb 69f 70f
11:42 6 9 mph 1020.5mb 69f 70f
11:36 2 7 mph 1020.5mb 70f 71f
11:30 2 8 mph 1020.5mb 70f 71f
11:24 6 7 mph 1020.5mb 70f 70f
11:18 2 6 mph 1020.6mb 70f 70f
11:12 3 7 mph 1020.6mb 70f 70f
11:06 1 6 mph 1020.6mb 69f 70f
11:00 3 6 mph 1020.6mb 69f 70f
10:54 5 7 mph 1020.6mb 69f 70f
10:48 6 7 mph 1020.6mb 69f 70f
10:42 3 6 mph 1020.7mb 69f 70f
10:36 3 7 mph 1020.7mb 69f 71f
10:30 2 5 mph 1020.6mb 69f 71f
10:24 5 7 mph 1020.6mb 69f 71f
10:18 3 7 mph 1020.6mb 69f 70f
10:12 3 6 mph 1020.6mb 69f 70f
10:06 1 5 mph 1020.6mb 69f 70f
10:00 3 7 mph 1020.6mb 68f 70f
9:54 3 5 mph 1020.6mb 69f 70f
9:48 3 6 mph 1020.6mb 69f 70f
9:42 3 6 mph 1020.7mb 69f 70f
9:36 5 6 mph 1020.7mb 69f 70f
9:30 2 5 mph 1020.7mb 69f 70f
9:24 3 6 mph 1020.8mb 69f 69f
9:18 3 6 mph 1020.8mb 69f 69f
9:12 2 5 mph 1020.8mb 69f 69f
9:06 1 3 mph 1020.7mb 69f 69f
9:00 1 5 mph 1020.7mb 69f 69f
8:54 3 6 mph 1020.6mb 69f 68f
8:48 3 5 mph 1020.7mb 69f 68f
8:42 2 3 mph 1020.6mb 69f 68f
8:36 3 6 mph 1020.5mb 69f 68f
8:30 2 3 mph 1020.5mb 69f 68f
8:24 3 5 mph 1020.4mb 69f 68f
8:18 1 3 mph 1020.4mb 69f 68f
8:12 1 5 mph 1020.4mb 69f 67f
8:06 3 5 mph 1020.5mb 69f 67f
8:00 2 3 mph 1020.5mb 69f 67f
7:54 2 3 mph 1020.4mb 69f 67f
7:48 1 3 mph 1020.4mb 69f 67f
7:42 1 3 mph 1020.4mb 70f 67f
7:36 2 5 mph 1020.5mb 70f 67f
7:30 3 6 mph 1020.5mb 70f 67f
7:24 3 6 mph 1020.4mb 69f 66f
7:18 2 6 mph 1020.4mb 69f 66f
7:12 2 5 mph 1020.4mb 69f 66f
7:06 2 5 mph 1020.4mb 69f 66f
7:00 2 6 mph 1020.3mb 69f 66f
6:54 2 7 mph 1020.3mb 69f 66f
6:48 5 7 mph 1020.3mb 69f 66f
6:42 3 7 mph 1020.3mb 69f 66f
6:36 3 7 mph 1020.3mb 69f 66f
6:30 5 6 mph 1020.2mb 68f 66f
6:24 3 6 mph 1020.2mb 68f 66f
6:18 1 3 mph 1020.2mb 68f 66f
6:12 2 3 mph 1020.2mb 68f 66f
6:06 2 5 mph 1020.1mb 68f 66f
6:00 3 5 mph 1020.1mb 68f 66f
5:54 2 3 mph 1020.1mb 69f 66f
5:48 2 5 mph 1020.1mb 69f 66f
5:42 3 6 mph 1020mb 69f 66f
5:36 2 6 mph 1019.8mb 69f 66f
5:30 2 6 mph 1019.8mb 69f 66f
5:24 5 6 mph 1019.8mb 69f 66f
5:18 3 6 mph 1019.8mb 69f 66f
5:12 2 6 mph 1019.9mb 69f 66f
5:06 2 5 mph 1020mb 69f 66f
5:00 3 6 mph 1020mb 69f 66f
4:54 2 3 mph 1020.1mb 69f 67f
4:48 2 3 mph 1020.1mb 70f 67f
4:42 3 3 mph 1020.1mb 70f 66f
4:36 2 3 mph 1020mb 70f 67f
4:30 1 2 mph 1020mb 71f 66f
4:24 1 2 mph 1019.9mb 71f 67f
4:18  -  3 mph 1019.9mb 71f 66f
4:12 1 3 mph 1019.8mb 71f 66f
4:06 1 3 mph 1019.8mb 71f 66f
4:00 2 3 mph 1019.8mb 71f 66f
3:54  -  2 mph 1019.8mb 71f 66f
3:48 2 3 mph 1019.7mb 71f 66f
3:42 1 3 mph 1019.7mb 71f 67f
3:36 2 3 mph 1019.8mb 71f 66f
3:30 2 3 mph 1020mb 71f 66f
3:24 2 3 mph 1020.1mb 71f 66f
3:18 2 3 mph 1020.1mb 71f 66f
3:12 2 3 mph 1020.1mb 71f 66f
3:06 3 3 mph 1020.1mb 71f 66f
3:00 2 2 mph 1020.1mb 71f 66f
2:54 2 5 mph 1020.1mb 71f 66f
2:48 2 5 mph 1020mb - -
2:42 2 3 mph 1020mb - -
2:36 2 3 mph 1020mb - -
2:30 2 3 mph 1020mb 71f 66f
2:24 2 5 mph 1020mb 71f 66f
2:18 2 3 mph 1020.1mb 71f 66f
2:12 2 3 mph 1020.2mb 71f 66f
2:06 1 3 mph 1020.4mb 71f 66f
2:00 2 3 mph 1020.5mb 71f 66f
1:54 3 6 mph 1020.5mb 71f 66f
1:48 2 3 mph 1020.5mb 71f 66f
1:42 2 3 mph 1020.5mb 71f 66f
1:36  -  3 mph 1020.5mb 71f 66f
1:30 3 5 mph 1020.5mb 71f 66f
1:24 2 5 mph 1020.5mb 71f 66f
1:18 3 6 mph 1020.4mb 71f 66f
1:12 2 5 mph 1020.4mb 71f 66f
1:06 2 3 mph 1020.3mb 71f 66f
1:00 2 5 mph 1020.2mb 71f 66f
12:54 2 5 mph 1020.2mb 71f 65f
12:48 3 5 mph 1020.2mb 71f 66f
12:42 2 5 mph 1020.3mb 70f 66f
12:36 2 3 mph 1020.3mb 70f 65f
12:30 1 3 mph 1020.4mb 70f 66f
12:24 1 2 mph 1020.4mb 70f 66f
12:18  -  2 mph 1020.5mb 71f 66f
12:12  -  3 mph 1020.5mb 71f 66f
12:06 3 3 mph 1020.7mb 71f 65f
12:00 1 2 mph 1020.9mb 71f 66f
dim. 09/17 11:54 1 2 mph 1020.9mb 71f 65f
11:48 1 3 mph 1020.9mb 71f 65f
11:42 3 6 mph 1020.8mb 71f 65f
11:36 3 6 mph 1020.8mb 71f 65f
11:30 5 7 mph 1020.7mb 71f 65f
11:24 5 7 mph 1020.6mb 70f 65f
11:18 6 6 mph 1020.6mb 70f 66f
11:12 2 3 mph 1020.5mb 70f 66f
11:06 2 5 mph 1020.6mb 70f 66f
11:00 2 3 mph 1020.6mb 71f 66f
10:54 2 2 mph 1020.5mb 71f 66f
10:48 2 3 mph 1020.4mb 71f 66f
10:42 2 3 mph 1020.5mb 71f 66f
10:36 2 5 mph 1020.4mb 71f 66f
10:30 2 5 mph 1020.4mb 70f 66f
10:24 2 3 mph 1020.4mb 70f 66f
10:18 3 7 mph 1020.4mb 70f 66f
10:12 2 3 mph 1020.5mb 70f 66f
10:06  -  1 mph 1020.4mb 70f 66f
10:00  -  2 mph 1020.4mb 70f 66f
9:54  -  5 mph 1020.5mb 70f 66f
9:48 3 5 mph 1020.6mb 70f 66f
9:42 2 5 mph 1020.6mb 70f 66f
9:36  -  1 mph 1020.5mb 69f 66f
9:30  -  2 mph 1020.5mb 69f 66f
9:24  -  5 mph 1020.5mb 69f 66f
9:18  -  2 mph 1020.4mb 69f 66f
9:12 2 5 mph 1020.5mb 69f 66f
9:06 5 6 mph 1020.5mb 69f 66f
9:00 2 5 mph 1020.5mb 69f 66f
8:54 2 7 mph 1020.5mb 69f 66f
8:48 3 7 mph 1020.5mb 69f 66f
8:42 3 5 mph 1020.4mb 69f 66f
8:36 3 6 mph 1020.4mb 69f 66f
8:30 5 7 mph 1020.4mb 69f 66f
8:24 5 7 mph 1020.5mb 69f 66f
8:18 3 6 mph 1020.4mb 69f 66f
8:12 3 5 mph 1020.3mb 69f 67f
8:06 1 3 mph 1020.3mb 69f 66f
8:00 2 2 mph 1020.4mb 69f 66f
7:54 2 3 mph 1020.4mb 69f 66f
7:48 2 3 mph 1020.4mb 69f 66f
7:42 2 5 mph 1020.4mb 69f 66f
7:36 5 6 mph 1020.4mb 69f 66f